Weather History for Mount Pleasant, SC

Change the Weather History Date:

Monday, November 19, 2012

  Actual Average (KCHS) Record (KCHS)
Temperature  
Mean Temperature 56 °F 58 °F  
Max Temperature 60 °F 69 °F 83 °F (1942)
Min Temperature 53 °F 47 °F 23 °F (2014)
Degree Days  
Heating Degree Days 8 8  
Month to date heating degree days 118  
Since 1 July heating degree days 187  
Cooling Degree Days 0 1  
Month to date cooling degree days 24  
Year to date cooling degree days 2288  
Growing Degree Days 6 (Base 50)    
Moisture  
Dew Point 52 °F    
Average Humidity 87    
Maximum Humidity 100    
Minimum Humidity 72    
Precipitation  
Precipitation 0.00 in 0.08 in 1.44 in (2000)
Month to date precipitation 1.55  
Year to date precipitation 47.04  
Sea Level Pressure  
Sea Level Pressure 30.15 in    
Wind  
Wind Speed 9 mph (North)    
Max Wind Speed 14 mph    
Max Gust Speed 22 mph    
Visibility 8 miles    
Events Rain    
T = Trace of Precipitation, MM = Missing Value Source: NWS Daily Summary

Daily Weather History Graph

Daily Weather History Graph

Search for Another Location

Airport:

Trip Planner

Search our weather history database for the weather conditions in past years. The results will help you decide how hot, cold, wet, or windy it might be!

Date:

Astronomy

Nov. 19, 2012 Rise Set
Actual Time 6:53 AM EST 5:15 PM EST
Civil Twilight 6:27 AM EST 5:41 PM EST
Nautical Twilight 5:57 AM EST 6:11 PM EST
Astronomical Twilight 5:27 AM EST 6:41 PM EST
Moon 12:02 PM EST (11/19) 11:32 PM EST (11/19)
Length of Visible Light 11h 14m
Length of Day
10h 21m
Waxing Crescent, 40% of the Moon is Illuminated
Nov 19
Waxing Crescent
Nov 20
First Quarter
Nov 28
Full
Dec 6
Last Quarter
Dec 13
New

Hourly Weather History & Observations

Time (EST) Temp. Dew Point Humidity Pressure Visibility Wind Dir Wind Speed Gust Speed Precip Events Conditions
12:15 AM 53.6 °F 53.6 °F 100% 30.17 in 1.5 mi North 11.5 mph 18.4 mph N/A Rain Light Rain
12:35 AM 53.6 °F 53.6 °F 100% 30.17 in 1.8 mi NNW 10.4 mph 18.4 mph N/A Rain Light Rain
12:55 AM 53.6 °F 53.6 °F 100% 30.17 in 2.0 mi North 9.2 mph 17.3 mph N/A Rain Light Rain
1:15 AM 53.6 °F 51.8 °F 94% 30.16 in 1.8 mi North 11.5 mph 17.3 mph N/A Rain Light Rain
1:35 AM 53.6 °F 51.8 °F 94% 30.15 in 2.0 mi North 10.4 mph 18.4 mph N/A Rain Light Rain
1:55 AM 53.6 °F 51.8 °F 94% 30.15 in 1.8 mi North 9.2 mph 20.7 mph N/A Rain Light Rain
2:15 AM 53.6 °F 51.8 °F 94% 30.16 in 2.5 mi North 10.4 mph 17.3 mph N/A Rain Light Rain
2:35 AM 53.6 °F 51.8 °F 94% 30.16 in 5.0 mi North 10.4 mph 16.1 mph N/A Rain Light Rain
2:55 AM 53.6 °F 51.8 °F 94% 30.16 in 7.0 mi North 8.1 mph 18.4 mph N/A Rain Light Rain
3:15 AM 53.6 °F 51.8 °F 94% 30.16 in 7.0 mi North 8.1 mph - N/A   Light Drizzle
3:35 AM 53.6 °F 51.8 °F 94% 30.15 in 7.0 mi North 8.1 mph 21.9 mph N/A   Overcast
3:55 AM 53.6 °F 51.8 °F 94% 30.15 in 8.0 mi North 6.9 mph 16.1 mph N/A   Overcast
4:15 AM 53.6 °F 51.8 °F 94% 30.14 in 8.0 mi North 9.2 mph 16.1 mph N/A   Overcast
5:15 AM 53.6 °F 51.8 °F 94% 30.15 in 8.0 mi North 10.4 mph - N/A   Overcast
5:55 AM 53.6 °F 51.8 °F 94% 30.15 in 10.0 mi North 6.9 mph - N/A   Overcast
6:15 AM 53.6 °F 51.8 °F 94% 30.15 in 10.0 mi North 10.4 mph 18.4 mph N/A   Overcast
6:35 AM 53.6 °F 51.8 °F 94% 30.16 in 10.0 mi North 10.4 mph - N/A   Overcast
6:55 AM 53.6 °F 51.8 °F 94% 30.16 in 10.0 mi North 10.4 mph - N/A   Overcast
7:15 AM 53.6 °F 51.8 °F 94% 30.17 in 10.0 mi North 9.2 mph - N/A   Overcast
7:35 AM 53.6 °F 50.0 °F 88% 30.17 in 9.0 mi North 10.4 mph 17.3 mph N/A   Overcast
7:55 AM 53.6 °F 51.8 °F 94% 30.17 in 9.0 mi North 8.1 mph 18.4 mph N/A   Overcast
8:15 AM 53.6 °F 51.8 °F 94% 30.18 in 8.0 mi North 9.2 mph 19.6 mph N/A   Overcast
8:35 AM 53.6 °F 51.8 °F 94% 30.19 in 8.0 mi North 6.9 mph - N/A   Overcast
8:55 AM 53.6 °F 51.8 °F 94% 30.19 in 8.0 mi North 8.1 mph - N/A   Overcast
9:15 AM 53.6 °F 51.8 °F 94% 30.20 in 7.0 mi NNW 6.9 mph - N/A   Overcast
9:35 AM 53.6 °F 51.8 °F 94% 30.20 in 9.0 mi North 9.2 mph - N/A   Overcast
9:55 AM 55.4 °F 51.8 °F 88% 30.20 in 8.0 mi North 6.9 mph - N/A   Overcast
10:15 AM 55.4 °F 51.8 °F 88% 30.20 in 8.0 mi North 11.5 mph 17.3 mph N/A   Overcast
10:35 AM 55.4 °F 51.8 °F 88% 30.20 in 8.0 mi North 8.1 mph 16.1 mph N/A   Overcast
10:55 AM 55.4 °F 51.8 °F 88% 30.19 in 8.0 mi North 9.2 mph - N/A   Overcast
11:15 AM 55.4 °F 51.8 °F 88% 30.19 in 8.0 mi North 5.8 mph - N/A   Overcast
11:35 AM 57.2 °F 51.8 °F 82% 30.18 in 9.0 mi NNW 8.1 mph - N/A   Mostly Cloudy
11:55 AM 57.2 °F 51.8 °F 82% 30.17 in 9.0 mi North 8.1 mph - N/A   Mostly Cloudy
12:15 PM 59.0 °F 51.8 °F 77% 30.16 in 9.0 mi North 8.1 mph 18.4 mph N/A   Overcast
12:35 PM 59.0 °F 51.8 °F 77% 30.15 in 9.0 mi North 6.9 mph 19.6 mph N/A   Overcast
12:55 PM 60.8 °F 51.8 °F 72% 30.14 in 9.0 mi North 11.5 mph 20.7 mph N/A   Overcast
1:15 PM 60.8 °F 51.8 °F 72% 30.13 in 9.0 mi North 9.2 mph 18.4 mph N/A   Overcast
1:35 PM 60.8 °F 51.8 °F 72% 30.13 in 10.0 mi North 13.8 mph 21.9 mph N/A   Mostly Cloudy
1:55 PM 60.8 °F 53.6 °F 77% 30.13 in 9.0 mi North 12.7 mph 19.6 mph N/A   Overcast
2:15 PM 60.8 °F 51.8 °F 72% 30.12 in 10.0 mi North 10.4 mph 17.3 mph N/A   Overcast
2:35 PM 60.8 °F 53.6 °F 77% 30.12 in 10.0 mi NNW 9.2 mph - N/A   Overcast
2:55 PM 60.8 °F 53.6 °F 77% 30.12 in 10.0 mi NNW 9.2 mph 17.3 mph N/A   Overcast
3:15 PM 60.8 °F 53.6 °F 77% 30.11 in 10.0 mi North 10.4 mph 16.1 mph N/A   Overcast
3:35 PM 60.8 °F 53.6 °F 77% 30.11 in 10.0 mi North 12.7 mph 17.3 mph N/A   Light Drizzle
3:55 PM 60.8 °F 53.6 °F 77% 30.11 in 10.0 mi North 8.1 mph 16.1 mph N/A   Overcast
4:15 PM 60.8 °F 53.6 °F 77% 30.12 in 10.0 mi North 8.1 mph 16.1 mph N/A   Overcast
4:35 PM 60.8 °F 53.6 °F 77% 30.12 in 10.0 mi NNW 9.2 mph - N/A   Overcast
4:55 PM 60.8 °F 53.6 °F 77% 30.13 in 10.0 mi NNW 6.9 mph - N/A   Overcast
5:15 PM 60.8 °F 53.6 °F 77% 30.14 in 10.0 mi NNW 6.9 mph - N/A   Overcast
5:35 PM 59.0 °F 53.6 °F 82% 30.14 in 10.0 mi North 5.8 mph - N/A   Overcast
5:55 PM 59.0 °F 53.6 °F 82% 30.14 in 10.0 mi North 5.8 mph - N/A   Overcast
6:15 PM 59.0 °F 53.6 °F 82% 30.14 in 10.0 mi North 4.6 mph - N/A   Overcast
6:35 PM 59.0 °F 53.6 °F 82% 30.14 in 10.0 mi North 6.9 mph - N/A   Overcast
6:55 PM 59.0 °F 53.6 °F 82% 30.14 in 10.0 mi North 5.8 mph - N/A   Overcast
7:15 PM 59.0 °F 53.6 °F 82% 30.14 in 10.0 mi North 8.1 mph - N/A   Overcast
7:35 PM 57.2 °F 53.6 °F 88% 30.15 in 10.0 mi North 9.2 mph - N/A   Overcast
7:55 PM 57.2 °F 53.6 °F 88% 30.15 in 10.0 mi North 5.8 mph - N/A   Overcast
8:15 PM 57.2 °F 51.8 °F 82% 30.15 in 10.0 mi North 6.9 mph - N/A   Overcast
8:35 PM 57.2 °F 51.8 °F 82% 30.14 in 10.0 mi North 9.2 mph - N/A   Overcast
9:15 PM 57.2 °F 51.8 °F 82% 30.14 in 10.0 mi North 5.8 mph - N/A   Clear
9:35 PM 55.4 °F 51.8 °F 88% 30.13 in 10.0 mi North 6.9 mph - N/A   Clear
9:55 PM 55.4 °F 51.8 °F 88% 30.13 in 10.0 mi North 3.5 mph - N/A   Clear
10:15 PM 55.4 °F 51.8 °F 88% 30.12 in 10.0 mi North 5.8 mph - N/A   Clear
10:35 PM 55.4 °F 51.8 °F 88% 30.12 in 10.0 mi North 5.8 mph - N/A   Clear
10:55 PM 55.4 °F 51.8 °F 88% 30.11 in 10.0 mi North 5.8 mph - N/A   Clear
11:15 PM 53.6 °F 51.8 °F 94% 30.11 in 10.0 mi North 5.8 mph - N/A   Clear
11:35 PM 53.6 °F 51.8 °F 94% 30.11 in 10.0 mi North 4.6 mph - N/A   Clear